Location: Oregon Trail
(41.1872°N, 102.0741°W)
Time: 18:38:58
(UTC+00:00)

Cosmos 1606 - Pass Details

Date: 19 November 2019
Orbit: 504 x 528 km, 82.5° (Epoch: 08 December)

Event Time Altitude Azimuth Distance (km) Brightness Sun altitude
Rises 12:59:03 0° 342° (NNW) 2,622 5.9 -8.1°
Reaches altitude 10° 13:01:18 10° 333° (NNW) 1,735 4.9 -7.7°
Maximum altitude 13:04:45 34° 268° (W) 864 3.4 -7.1°
Drops below altitude 10° 13:08:12 10° 203° (SSW) 1,734 5.4 -6.5°
Sets 13:10:27 0° 194° (SSW) 2,620 6.4 -6.1°
